Regional Weather Roundup
Issued by NWS

Home | Current Version | Previous Version | Graphics & Text | Print | Product List | Glossary On
Versions: 1 2 3 4 5 6 7 8 9 10 11 12 13 14 15 16 17 18 19 20 21 22 23 24 25 26 27 28 29 30 31 32 33 34 35 36 37 38 39 40 41 42 43 44 45 46 47 48 49 50
572
ASUS43 KDTX 262010
RWRMI
MICHIGAN HOURLY REGIONAL WEATHER ROUNDUP
NATIONAL WEATHER SERVICE DETROIT/PONTIAC MI
400 PM EDT MON SEP 26 2016

NOTE: "FAIR" INDICATES FEW OR NO CLOUDS BELOW 12,000 FEET WITH NO
SIGNIFICANT WEATHER AND/OR OBSTRUCTION TO VISIBILITY.

MIZ047>049-052>055-059>063-066>070-074>076-081>083-262100-
SOUTHEAST LOWER MICHIGAN

CITY           SKY/WX    TMP DP  RH WIND       PRES   REMARKS
ADRIAN         MOSUNNY   66  45  46 W14G23    29.93S
ALMA           PTSUNNY   66  45  46 W16G31    29.84F
ANN ARBOR      MOSUNNY   67  45  45 SW17G23   29.89F
BAD AXE        CLOUDY    64  46  52 SW10G25   29.81F
CARO           MOSUNNY   66  45  45 SW20G28   29.82S
DETROIT CITY   MOSUNNY   67  46  47 W13G22    29.88F
DETROIT        CLOUDY    68  46  45 W14G25    29.90F
FLINT          SUNNY     67  45  45 W15G30    29.85F
GROSSE ILE     MOSUNNY   68  46  44 W12G18    29.89F
HILLSDALE      MOSUNNY   68  37  32 W12G24    29.92R
HOWELL         MOSUNNY   67  43  42 W13G26    29.87F

CITY           SKY/WX    TMP DP  RH WIND       PRES   REMARKS
JACKSON        MOSUNNY   65  41  41 W16G26    29.90S
LAMBERTVILLE   CLOUDY    69  46  42 W14G22    29.92F
LANSING        PTSUNNY   67  42  40 W18G24    29.88S
LAPEER         FAIR      65  45  48 W14G20    29.85S
MASON          PTSUNNY   67  44  43 W14G20    29.89S
MONROE         CLOUDY    69  47  46 W15G29    29.90S
MT. CLEMENS    PTSUNNY   67  49  51 SW15      29.85F
PONTIAC        PTSUNNY   66  46  48 W17G24    29.86F
PORT HOPE        N/A     64  47  53 W8G25     29.79S
PORT HURON     MOSUNNY   64  48  55 W10G17    29.86F
TRI CITIES     MOSUNNY   65  44  46 W20G32    29.83R HAZE
MIDLAND        PTSUNNY   67  45  45 SW13G22   29.81S
TROY           CLOUDY    69  42  38 SW13G18   29.89F
SAGINAW HB     MOSUNNY   64  43  45 W17G24    29.82S
$$
MIZ043>046-050>051-056>058-064>065-071>073-077>080-262100-
SOUTHWEST LOWER MICHIGAN

CITY           SKY/WX    TMP DP  RH WIND       PRES   REMARKS
BATTLE CREEK   PTSUNNY   67  43  41 W18G24    29.91F
BENTON HARBOR  MOSUNNY   69  40  34 W22G30    29.92F
BIG RAPIDS     MOSUNNY   64  40  41 W14G30    29.81S
COLDWATER      MOSUNNY   68  36  30 W21G29    29.93R
FREMONT        CLOUDY    65  32  29 W18G25    29.84S
HOLLAND        MOSUNNY   67  44  43 W25G32    29.90S
GRAND RAPIDS   PTSUNNY   67  42  40 W22G35    29.88S
IONIA          PTSUNNY   66  41  40 W23G33    29.86S
KALAMAZOO      MOSUNNY   67  42  40 W16G24    29.92S
LUDINGTON      CLOUDY    62  42  47 W13G25    29.81R
MARSHALL       MOSUNNY   65  43  44 W14G22    29.90S
MOUNT PLEASANT MOSUNNY   64  43  45 W17G31    29.82S
MUSKEGON       PTSUNNY   64  42  44 W20G30    29.86F
SOUTH HAVEN    MOSUNNY   67  44  43 W15G24    29.92S
$$
MIZ016>042-262100-
NORTHERN LOWER MICHIGAN

CITY           SKY/WX    TMP DP  RH WIND       PRES   REMARKS
ALPENA         CLOUDY    60  45  57 SW17G25   29.74S
BEAVER ISLAND  LGT RAIN  57  49  74 W22G32    29.67S
BELLAIRE       CLOUDY    60  47  63 SW6       29.73F
CADILLAC       MOSUNNY   60  44  54 SW18G28   29.78S
CHARLEVOIX     RAIN      56  49  77 SW15G28   29.74R
FRANKFORT      CLOUDY    62  42  49 W15G28    29.75F
GAYLORD        CLOUDY    55  46  71 SW14      29.74S
GRAYLING       CLOUDY    57  47  70 SW9G16    29.77S
HARBOR SPRINGS LGT RAIN  55  51  89 SW13G24   29.69S
HOUGHTON LAKE  CLOUDY    59  45  59 W13G21    29.79S
MANISTEE       CLOUDY    63  42  46 W17G30    29.78R
OSCODA         PTSUNNY   66  46  48 W20G30    29.76S
PELLSTON       CLOUDY    56  51  84 SW9       29.70R
ROGERS CITY    CLOUDY    59  47  64 SW16G23   29.72S
TRAVERSE CITY  HVY RAIN  57  49  74 SW12G17   29.75R
$$
MIZ007>008-015-262100-
EASTERN UPPER MICHIGAN

CITY           SKY/WX    TMP DP  RH WIND       PRES   REMARKS
KINROSS        CLOUDY    58  50  75 SW8G16    29.65S
MACKINAC ISLAN CLOUDY    57  50  77 W20G31    29.67R
NEWBERRY       PTSUNNY   58  48  68 SW15G21   29.62S
S. S. MARIE    RAIN      57  51  80 SW12      29.64R
MUNISING         N/A     57  50  77 MISG      29.62R
$$
MIZ004>006-011>014-085-262100-
CENTRAL UPPER MICHIGAN

CITY           SKY/WX    TMP DP  RH WIND       PRES   REMARKS
MANISTIQUE     CLOUDY    58  47  66 W9G20     29.65R
ESCANABA       CLOUDY    57  45  64 W20G25    29.68R
MENOMINEE      CLOUDY    58  43  57 W10G17    29.74R
SAWYER-GWINN   CLOUDY    54  45  71 W20       29.64R
$$
MIZ001>003-009>011-084-262100-
WESTERN UPPER MICHIGAN

CITY           SKY/WX    TMP DP  RH WIND       PRES   REMARKS
IRON MOUNTAIN  CLOUDY    55  43  63 W14G21    29.68R
HOUGHTON       LGT RAIN  52  47  83 W24G37    29.54R
COPPER HARBOR    N/A     54  51  90 VRB7G20   29.50R
IRONWOOD       LGT RAIN  49  47  93 W17G25    29.69S
$$

ABBREVIATIONS USED IN REMARKS
   TC - TEMPERATURE IN CELSIUS
  WCI - WIND CHILL INDEX
   HX - HEAT INDEX
  VSB - VISIBILITY





USA.gov is the U.S. government's official web portal to all federal, state and local government web resources and services.